When you browse on this site, cookies collect data to enhance your experience and personalize the content and advertising you see.
Visit our Privacy Policy to learn more. By continuing to use the site, you agree to this use of cookies and data.
  • In Austria
  • List of Countries
  • For 7 days
  • Water Temperature
  • Weather Map
  • News
  • Weather Widgets
  • user-avatar
    Login

    Hourly Weather Portalegre

    Today, 18 September, Wednesday

    Time Temperature Precipitation Wind Pressure Humidity
    00:00 +17°C° 0 mm 0 mps 722 mmHg 75%
    01:00 +17°C° 0 mm 0 mps 722 mmHg 77%
    02:00 +16°C° 0 mm 0 mps 722 mmHg 78%
    03:00 +16°C° 0 mm 0 mps 722 mmHg 80%
    04:00 +16°C° 0 mm 0 mps 722 mmHg 82%
    05:00 +15°C° 0 mm 0 mps 722 mmHg 84%
    06:00 +15°C° 0 mm 0 mps 722 mmHg 86%
    07:00 +17°C° 0 mm 0 mps 723 mmHg 76%
    08:00 +19°C° 0 mm 0 mps 723 mmHg 67%
    09:00 +23°C° 0 mm 1 mps 723 mmHg 57%
    10:00 +25°C° 0 mm 1 mps 723 mmHg 50%
    11:00 +28°C° 0 mm 1 mps 724 mmHg 43%
    12:00 +30°C° 0 mm 1 mps 724 mmHg 36%
    13:00 +30°C° 0 mm 1 mps 724 mmHg 33%
    14:00 +31°C° 0 mm 1 mps 723 mmHg 29%
    15:00 +31°C° 0 mm 1 mps 723 mmHg 26%
    16:00 +30°C° 0 mm 2 mps 723 mmHg 29%
    17:00 +29°C° 0 mm 2 mps 723 mmHg 31%
    18:00 +28°C° 0 mm 2 mps 723 mmHg 34%
    19:00 +26°C° 0 mm 2 mps 723 mmHg 45%
    20:00 +23°C° 0 mm 2 mps 723 mmHg 55%
    21:00 +20°C° 0 mm 3 mps 723 mmHg 66%
    22:00 +19°C° 0 mm 2 mps 723 mmHg 71%
    23:00 +18°C° 0 mm 2 mps 723 mmHg 75%

    Tomorrow, 19 September, Thursday

    Time Temperature Precipitation Wind Pressure Humidity
    00:00 +18°C° 0 mm 2 mps 723 mmHg 80%
    01:00 +18°C° 0 mm 1 mps 723 mmHg 82%
    02:00 +18°C° 0 mm 1 mps 722 mmHg 83%
    03:00 +16°C° 0 mm 1 mps 722 mmHg 85%
    04:00 +16°C° 0 mm 1 mps 722 mmHg 85%
    05:00 +16°C° 0 mm 1 mps 722 mmHg 86%
    06:00 +16°C° 0 mm 1 mps 722 mmHg 86%
    07:00 +19°C° 0 mm 1 mps 723 mmHg 77%
    08:00 +21°C° 0 mm 1 mps 723 mmHg 68%
    09:00 +22°C° 0 mm 1 mps 724 mmHg 60%
    10:00 +24°C° 0 mm 1 mps 724 mmHg 52%
    11:00 +26°C° 0 mm 2 mps 724 mmHg 44%
    12:00 +29°C° 0 mm 2 mps 724 mmHg 36%
    13:00 +29°C° 0 mm 2 mps 723 mmHg 33%
    14:00 +30°C° 0 mm 2 mps 723 mmHg 30%
    15:00 +30°C° 0 mm 2 mps 723 mmHg 27%
    16:00 +29°C° 0 mm 2 mps 722 mmHg 30%
    17:00 +28°C° 0 mm 2 mps 722 mmHg 32%
    18:00 +27°C° 0 mm 2 mps 722 mmHg 34%
    19:00 +25°C° 0 mm 2 mps 722 mmHg 45%
    20:00 +23°C° 0 mm 2 mps 722 mmHg 56%
    21:00 +19°C° 0 mm 2 mps 722 mmHg 67%
    22:00 +19°C° 0 mm 2 mps 722 mmHg 70%
    23:00 +18°C° 0 mm 2 mps 722 mmHg 72%

    Day after tomorrow, 20 September, Friday

    Time Temperature Precipitation Wind Pressure Humidity
    00:00 +19°C° 0 mm 1 mps 721 mmHg 75%
    01:00 +18°C° 0 mm 1 mps 721 mmHg 77%
    02:00 +18°C° 0 mm 1 mps 721 mmHg 78%
    03:00 +18°C° 0 mm 1 mps 721 mmHg 79%
    04:00 +16°C° 0 mm 1 mps 721 mmHg 80%
    05:00 +16°C° 0 mm 1 mps 720 mmHg 82%
    06:00 +16°C° 0 mm 1 mps 720 mmHg 83%
    07:00 +18°C° 0 mm 1 mps 721 mmHg 78%
    08:00 +19°C° 0 mm 1 mps 721 mmHg 72%
    09:00 +20°C° 0 mm 1 mps 721 mmHg 66%
    10:00 +22°C° 0 mm 1 mps 721 mmHg 60%
    11:00 +23°C° 0 mm 1 mps 721 mmHg 53%
    12:00 +24°C° 0 mm 1 mps 721 mmHg 47%
    13:00 +25°C° 0 mm 2 mps 721 mmHg 45%
    14:00 +25°C° 0 mm 2 mps 721 mmHg 43%
    15:00 +25°C° 0 mm 3 mps 720 mmHg 42%
    16:00 +25°C° 0 mm 2 mps 720 mmHg 44%
    17:00 +24°C° 0 mm 2 mps 720 mmHg 45%
    18:00 +23°C° 0 mm 1 mps 720 mmHg 47%
    19:00 +22°C° 0 mm 1 mps 720 mmHg 52%
    20:00 +21°C° 0 mm 1 mps 720 mmHg 57%
    21:00 +19°C° 0 mm 1 mps 721 mmHg 62%
    22:00 +19°C° 0 mm 1 mps 720 mmHg 68%
    23:00 +18°C° 0 mm 1 mps 720 mmHg 74%

    21 September, Saturday

    Time Temperature Precipitation Wind Pressure Humidity
    00:00 +16°C° 0 mm 1 mps 719 mmHg 80%
    01:00 +16°C° 0 mm 1 mps 719 mmHg 83%
    02:00 +15°C° 0 mm 1 mps 719 mmHg 87%
    03:00 +15°C° 0 mm 1 mps 719 mmHg 90%
    04:00 +16°C° 0 mm 2 mps 719 mmHg 90%
    05:00 +16°C° 0 mm 2 mps 719 mmHg 90%
    06:00 +16°C° 0 mm 2 mps 718 mmHg 89%
    07:00 +16°C° 0.3 mm 3 mps 719 mmHg 88%
    08:00 +17°C° 0.3 mm 3 mps 719 mmHg 87%
    09:00 +17°C° 0.3 mm 4 mps 719 mmHg 86%
    10:00 +17°C° 0.8 mm 4 mps 719 mmHg 85%
    11:00 +18°C° 0.8 mm 4 mps 719 mmHg 85%
    12:00 +18°C° 0.8 mm 4 mps 719 mmHg 85%
    13:00 +18°C° 0.9 mm 4 mps 719 mmHg 85%
    14:00 +19°C° 0.9 mm 5 mps 719 mmHg 85%
    15:00 +19°C° 0.9 mm 5 mps 719 mmHg 85%
    16:00 +19°C° 1.5 mm 4 mps 719 mmHg 86%
    17:00 +19°C° 1.5 mm 4 mps 719 mmHg 87%
    18:00 +18°C° 1.5 mm 4 mps 719 mmHg 89%
    19:00 +18°C° 0.4 mm 4 mps 719 mmHg 90%
    20:00 +18°C° 0.4 mm 3 mps 720 mmHg 91%
    21:00 +17°C° 0.4 mm 3 mps 720 mmHg 92%
    22:00 +16°C° 0 mm 3 mps 720 mmHg 93%
    23:00 +16°C° 0 mm 2 mps 720 mmHg 94%

    22 September, Sunday

    Time Temperature Precipitation Wind Pressure Humidity
    00:00 +15°C° 0 mm 2 mps 720 mmHg 95%
    01:00 +14°C° 0 mm 2 mps 720 mmHg 95%
    02:00 +13°C° 0 mm 2 mps 721 mmHg 95%
    03:00 +13°C° 0 mm 2 mps 721 mmHg 95%
    04:00 +13°C° 0 mm 1 mps 721 mmHg 95%
    05:00 +12°C° 0 mm 1 mps 721 mmHg 95%
    06:00 +12°C° 0 mm 1 mps 721 mmHg 95%
    07:00 +14°C° 0 mm 2 mps 722 mmHg 88%
    08:00 +15°C° 0 mm 2 mps 722 mmHg 81%
    09:00 +17°C° 0 mm 2 mps 723 mmHg 74%
    10:00 +18°C° 0 mm 2 mps 723 mmHg 64%
    11:00 +20°C° 0 mm 3 mps 724 mmHg 55%
    12:00 +21°C° 0 mm 3 mps 724 mmHg 45%
    13:00 +22°C° 0 mm 3 mps 724 mmHg 42%
    14:00 +22°C° 0 mm 3 mps 724 mmHg 40%
    15:00 +24°C° 0 mm 3 mps 723 mmHg 37%
    16:00 +22°C° 0 mm 3 mps 724 mmHg 42%
    17:00 +21°C° 0 mm 3 mps 724 mmHg 47%
    18:00 +20°C° 0 mm 3 mps 724 mmHg 52%
    19:00 +19°C° 0 mm 3 mps 724 mmHg 58%
    20:00 +17°C° 0 mm 2 mps 725 mmHg 64%
    21:00 +16°C° 0 mm 2 mps 725 mmHg 71%
    22:00 +15°C° 0 mm 2 mps 725 mmHg 72%
    23:00 +15°C° 0 mm 2 mps 725 mmHg 73%

    23 September, Monday

    Time Temperature Precipitation Wind Pressure Humidity
    00:00 +14°C° 0 mm 1 mps 725 mmHg 74%
    01:00 +14°C° 0 mm 1 mps 725 mmHg 75%
    02:00 +14°C° 0 mm 1 mps 725 mmHg 76%
    03:00 +13°C° 0 mm 1 mps 725 mmHg 77%
    04:00 +13°C° 0 mm 1 mps 725 mmHg 77%
    05:00 +13°C° 0 mm 1 mps 725 mmHg 77%
    06:00 +13°C° 0 mm 1 mps 725 mmHg 77%
    07:00 +15°C° 0 mm 1 mps 725 mmHg 68%
    08:00 +18°C° 0 mm 1 mps 726 mmHg 59%
    09:00 +20°C° 0 mm 1 mps 726 mmHg 50%
    10:00 +22°C° 0 mm 1 mps 726 mmHg 44%
    11:00 +23°C° 0 mm 1 mps 726 mmHg 39%
    12:00 +25°C° 0 mm 1 mps 727 mmHg 33%
    13:00 +26°C° 0 mm 1 mps 726 mmHg 30%
    14:00 +27°C° 0 mm 1 mps 726 mmHg 28%
    15:00 +27°C° 0 mm 1 mps 725 mmHg 25%
    16:00 +26°C° 0 mm 1 mps 725 mmHg 28%
    17:00 +25°C° 0 mm 1 mps 725 mmHg 31%
    18:00 +23°C° 0 mm 1 mps 725 mmHg 35%
    19:00 +22°C° 0 mm 1 mps 725 mmHg 38%
    20:00 +21°C° 0 mm 1 mps 725 mmHg 40%
    21:00 +20°C° 0 mm 1 mps 725 mmHg 43%
    22:00 +20°C° 0 mm 1 mps 725 mmHg 45%
    23:00 +19°C° 0 mm 1 mps 725 mmHg 46%
    Show more